This is the latest recevied weather packets stored in our database for station/object OH2TH. If no packets are shown the sender has not sent any weather packets the latest 10 day(s).
| Time | Temp. | Humidity | Pressure | Rain* | Wind** | Luminosity | Snow |
|---|---|---|---|---|---|---|---|
| 1777696203 | 3.89° C | 89% | 101 hPa | 3.05 mm | - | - | - |
| 1777695302 | 2.78° C | 93% | 101 hPa | 3.05 mm | - | - | - |
| 1777694401 | 2.78° C | 87% | 101 hPa | 3.05 mm | - | - | - |
| 1777692604 | 2.22° C | 86% | 101 hPa | 3.05 mm | - | - | - |
| 1777691704 | 2.22° C | 92% | 101 hPa | 3.05 mm | - | - | - |
| 1777690803 | 2.22° C | 88% | 101 hPa | 3.05 mm | - | - | - |
| 1777689902 | 2.78° C | 88% | 101 hPa | 3.05 mm | - | - | - |
| 1777689001 | 2.78° C | 88% | 101 hPa | 3.05 mm | - | - | - |
| 1777688105 | 2.78° C | 92% | 101 hPa | 3.05 mm | - | - | - |
| 1777687204 | 2.78° C | 86% | 101 hPa | 3.05 mm | - | - | - |
| 1777686303 | 3.33° C | 85% | 101 hPa | 3.05 mm | - | - | - |
| 1777685402 | 3.33° C | 86% | 101 hPa | 3.05 mm | - | - | - |
| 1777684502 | 3.33° C | 90% | 101 hPa | 3.05 mm | - | - | - |
| 1777683601 | 3.33° C | 86% | 101 hPa | 3.05 mm | - | - | - |
| 1777682700 | 4.44° C | 85% | 101 hPa | 3.05 mm | - | - | - |
| 1777681804 | 4.44° C | 83% | 101 hPa | 3.05 mm | - | - | - |
| 1777680904 | 4.44° C | 86% | 101 hPa | 3.05 mm | - | - | - |
| 1777680003 | 4.44° C | 89% | 101 hPa | 3.05 mm | - | - | - |
| 1777679102 | 4.44° C | 86% | 101 hPa | 3.05 mm | - | - | - |
| 1777678201 | 4.44° C | 86% | 101 hPa | 3.05 mm | - | - | - |
| 1777677305 | 5.56° C | 83% | 101 hPa | 3.05 mm | - | - | - |
| 1777676404 | 5.56° C | 82% | 101 hPa | 3.05 mm | - | - | - |
| 1777675503 | 6.67° C | 81% | 101 hPa | 3.05 mm | - | - | - |
| 1777674603 | 6.67° C | 80% | 101 hPa | 3.05 mm | - | - | - |
| 1777673702 | 6.67° C | 78% | 101 hPa | 3.05 mm | - | - | - |
* Rain latest 24 hours (hover to see other rain measurements)
** Current wind speed in m/s (hover to see current wind gust speed)